IT9FDP-13 Weather Reports


time (UTC)temp
F
wind
direction
speed
knots
gust
knots
rain 1hr
in
rain 24hr
in
rain mn
in
humidity
%
barometer
mb
20260504050528 64 0.0 0.0 0.00 0.00 0.00 56 1018.7
20260504050018 63 158 0.0 0.9 0.00 0.00 0.00 55 1018.6
20260504045527 63 23 0.0 1.7 0.00 0.00 0.00 57 1018.5
20260504045016 63 170 0.0 0.9 0.00 0.00 0.00 58 1018.5
20260504044517 62 158 0.0 0.9 0.00 0.00 0.00 59 1018.4
20260504044024 62 158 0.0 0.9 0.00 0.00 0.00 60 1018.5
20260504043603 61 180 0.0 0.9 0.00 0.00 0.00 62 1018.4
20260504043017 61 180 0.0 0.9 0.00 0.00 0.00 63 1018.4
20260504042516 60 0.0 0.0 0.00 0.00 0.00 64 1018.4
20260504042021 60 180 0.0 0.9 0.00 0.00 0.00 65 1018.3
20260504041535 60 180 0.0 0.9 0.00 0.00 0.00 65 1018.2
20260504041020 60 186 0.0 1.7 0.00 0.00 0.00 65 1018.3
20260504040517 60 0.0 0.0 0.00 0.00 0.00 65 1018.2
20260504040019 60 0.0 0.0 0.00 0.00 0.00 65 1018.3
20260504035516 60 180 0.0 0.9 0.00 0.00 0.00 65 1018.3
20260504035017 60 173 0.0 1.7 0.00 0.00 0.00 64 1018.3
20260504034517 60 186 0.9 1.7 0.00 0.00 0.00 65 1018.2
20260504034019 60 188 0.9 1.7 0.00 0.00 0.00 65 1018.3
20260504033540 59 177 0.9 1.7 0.00 0.00 0.00 65 1018.3
20260504033017 59 179 0.9 1.7 0.00 0.00 0.00 65 1018.3
20260504032523 59 0.0 0.0 0.00 0.00 0.00 65 1018.3
20260504032022 59 173 0.0 1.7 0.00 0.00 0.00 66 1018.3
20260504031516 59 164 0.0 0.9 0.00 0.00 0.00 68 1018.3
20260504031025 60 168 0.0 0.9 0.00 0.00 0.00 68 1018.3
20260504030518 60 0.0 0.0 0.00 0.00 0.00 68 1018.3
20260504030022 61 180 0.0 0.9 0.00 0.00 0.00 68 1018.3
20260504025516 61 180 0.0 0.9 0.00 0.00 0.00 68 1018.2
20260504025024 61 191 0.9 1.7 0.00 0.00 0.00 67 1018.2
20260504024519 61 187 0.9 1.7 0.00 0.00 0.00 67 1018.2
20260504024023 61 197 0.9 2.6 0.00 0.00 0.00 67 1018.3
20260504023527 61 190 0.9 2.6 0.00 0.00 0.00 66 1018.3
20260504023021 61 183 0.0 1.7 0.00 0.00 0.00 65 1018.3
20260504022517 60 0.0 0.0 0.00 0.00 0.00 65 1018.3
20260504022047 60 0.0 0.0 0.00 0.00 0.00 65 1018.4
20260504021522 60 0.0 0.0 0.00 0.00 0.00 65 1018.6
20260504021058 60 0.0 0.0 0.00 0.00 0.00 65 1018.6
20260504020545 60 0.0 0.0 0.00 0.00 0.00 65 1018.6
20260504020024 60 0.0 0.0 0.00 0.00 0.00 65 1018.5
20260504015518 60 0.0 0.0 0.00 0.00 0.00 65 1018.5
20260504015019 60 0.0 0.0 0.00 0.00 0.00 65 1018.5
20260504014517 59 0.0 0.0 0.00 0.00 0.00 65 1018.5
20260504014016 59 0.0 0.0 0.00 0.00 0.00 66 1018.5
20260504013516 59 0.0 0.0 0.00 0.00 0.00 66 1018.5
20260504013026 59 0.0 0.0 0.00 0.00 0.00 67 1018.6
20260504012523 59 0.0 0.0 0.00 0.00 0.00 68 1018.6
20260504012025 59 0.0 0.0 0.00 0.00 0.00 68 1018.5
20260504011515 59 0.0 0.0 0.00 0.00 0.00 69 1018.5
20260504011047 60 0.0 0.0 0.00 0.00 0.00 69 1018.6
20260504010539 60 0.0 0.0 0.00 0.00 0.00 69 1018.6
20260504010019 60 0.0 0.0 0.00 0.00 0.00 70 1018.5
20260504005519 60 0.0 0.0 0.00 0.00 0.00 70 1018.6
20260504005038 60 0.0 0.0 0.00 0.00 0.00 70 1018.6
20260504004539 60 0.0 0.0 0.00 0.00 0.00 70 1018.6
20260504004025 60 0.0 0.0 0.00 0.00 0.00 70 1018.5
20260504003517 60 0.0 0.0 0.00 0.00 0.00 71 1018.6
20260504003044 61 0.0 0.0 0.00 0.00 0.00 71 1018.5
20260504002516 61 180 0.0 1.7 0.00 0.00 0.00 71 1018.5
20260504002024 60 180 0.0 1.7 0.00 0.00 0.00 71 1018.5
20260504001547 61 180 0.0 0.9 0.00 0.00 0.00 71 1018.6
20260504001028 61 183 0.0 1.7 0.00 0.00 0.00 71 1018.7
20260504000519 61 193 0.9 2.6 0.00 0.00 0.00 71 1018.7
20260504000020 61 186 0.9 1.7 0.00 0.00 0.00 71 1018.7
20260503235517 61 184 0.0 1.7 0.00 0.00 0.00 71 1018.7
20260503235016 61 180 0.0 1.7 0.00 0.00 0.00 71 1018.8
20260503234523 61 180 0.0 0.9 0.00 0.00 0.00 71 1018.8
20260503234026 61 0.0 0.0 0.00 0.00 0.00 71 1018.9
20260503233524 61 180 0.0 0.9 0.00 0.00 0.00 71 1018.9
20260503233018 61 194 0.0 1.7 0.00 0.00 0.00 71 1018.9
20260503232524 62 180 0.0 1.7 0.00 0.00 0.00 71 1018.9
20260503232020 62 193 0.0 1.7 0.00 0.00 0.00 71 1019.0
20260503231521 62 180 0.0 0.9 0.00 0.00 0.00 71 1019.1
20260503231040 62 180 0.0 1.7 0.00 0.00 0.00 71 1019.1
20260503230545 62 180 0.0 0.9 0.00 0.00 0.00 71 1019.0
20260503230018 62 158 0.0 0.9 0.00 0.00 0.00 71 1019.1
20260503225518 62 177 0.0 1.7 0.00 0.00 0.00 71 1019.2
20260503225046 62 186 0.0 1.7 0.00 0.00 0.00 71 1019.3
20260503224516 62 177 0.0 1.7 0.00 0.00 0.00 71 1019.3
20260503224023 62 176 0.0 1.7 0.00 0.00 0.00 71 1019.3
20260503223526 62 180 0.0 1.7 0.00 0.00 0.00 71 1019.2
20260503223019 62 187 0.9 1.7 0.00 0.00 0.00 71 1019.2
20260503222522 62 156 0.9 1.7 0.00 0.00 0.00 71 1019.2
20260503222019 62 138 0.0 1.7 0.00 0.00 0.00 71 1019.1
20260503221519 62 181 0.9 1.7 0.00 0.00 0.00 71 1019.2
20260503221045 62 190 0.9 1.7 0.00 0.00 0.00 71 1019.2
20260503220517 62 185 0.9 2.6 0.00 0.00 0.00 71 1019.1
20260503220018 62 197 0.9 1.7 0.00 0.00 0.00 71 1019.1
20260503215524 62 182 0.9 1.7 0.00 0.00 0.00 71 1019.2
20260503215026 62 175 0.9 2.6 0.00 0.00 0.00 71 1019.2
20260503214516 62 179 0.9 1.7 0.00 0.00 0.00 70 1019.2
20260503214025 62 185 0.0 1.7 0.00 0.00 0.00 70 1019.4
20260503213537 62 180 0.0 1.7 0.00 0.00 0.00 70 1019.3
20260503213026 62 180 0.9 1.7 0.00 0.00 0.00 70 1019.2
20260503212538 62 175 0.0 1.7 0.00 0.00 0.00 70 1019.2
20260503212022 62 210 0.0 2.6 0.00 0.00 0.00 70 1019.1
20260503211517 62 0.0 0.0 0.00 0.00 0.00 70 1019.1
20260503211047 63 0.0 0.0 0.00 0.00 0.00 69 1019.3
20260503210544 63 180 0.0 0.9 0.00 0.00 0.00 69 1019.3
20260503210028 63 204 0.9 1.7 0.00 0.00 0.00 69 1019.2
20260503205556 63 191 0.9 1.7 0.00 0.00 0.00 69 1019.2
20260503205023 63 179 0.0 1.7 0.00 0.00 0.00 69 1019.2
20260503204519 63 185 0.0 1.7 0.00 0.00 0.00 69 1019.0
20260503204021 63 186 0.0 1.7 0.00 0.00 0.00 69 1019.0
20260503203520 63 180 0.0 0.9 0.00 0.00 0.00 68 1018.9
20260503203018 63 186 0.0 2.6 0.00 0.00 0.00 68 1019.0
20260503202517 63 191 0.9 1.7 0.00 0.00 0.00 68 1018.9
20260503202023 63 190 0.9 1.7 0.00 0.00 0.00 68 1019.0
20260503201524 63 205 0.9 2.6 0.00 0.00 0.00 68 1019.0
20260503201019 63 184 0.9 1.7 0.00 0.00 0.00 68 1019.0
20260503200525 63 185 0.0 1.7 0.00 0.00 0.00 68 1018.9
20260503200024 63 198 0.9 2.6 0.00 0.00 0.00 67 1018.9
20260503195515 63 180 0.9 1.7 0.00 0.00 0.00 67 1018.9
20260503195045 63 196 0.9 1.7 0.00 0.00 0.00 67 1018.9
20260503194529 63 184 0.9 1.7 0.00 0.00 0.00 67 1019.1
20260503194027 63 192 0.9 1.7 0.00 0.00 0.00 66 1019.2
20260503193525 63 194 0.9 2.6 0.00 0.00 0.00 66 1019.2
20260503193049 63 189 0.9 1.7 0.00 0.00 0.00 66 1019.3
20260503192539 63 189 0.9 1.7 0.00 0.00 0.00 66 1019.3
20260503192118 63 198 0.9 1.7 0.00 0.00 0.00 66 1019.2
20260503191543 63 180 0.0 1.7 0.00 0.00 0.00 65 1019.2
20260503191018 63 179 0.9 1.7 0.00 0.00 0.00 65 1019.1
20260503190516 64 184 0.9 2.6 0.00 0.00 0.00 65 1019.0
20260503190026 64 202 0.9 1.7 0.00 0.00 0.00 65 1019.1
20260503185522 64 195 0.9 1.7 0.00 0.00 0.00 65 1018.9
20260503185028 64 175 0.9 1.7 0.00 0.00 0.00 65 1018.9
20260503184519 64 196 0.0 1.7 0.00 0.00 0.00 64 1018.9
20260503184027 64 180 0.0 0.9 0.00 0.00 0.00 64 1018.8
20260503183516 64 203 0.0 1.7 0.00 0.00 0.00 64 1018.7
20260503183019 64 181 0.0 1.7 0.00 0.00 0.00 64 1018.7
20260503182522 65 183 0.9 1.7 0.00 0.00 0.00 63 1018.5
20260503182021 65 183 0.9 1.7 0.00 0.00 0.00 63 1018.5
20260503181519 65 179 0.9 2.6 0.00 0.00 0.00 62 1018.4
20260503181022 65 177 0.9 2.6 0.00 0.00 0.00 62 1018.5
20260503180522 65 25 0.0 0.9 0.00 0.00 0.00 61 1018.4
20260503180028 65 17 0.9 3.5 0.00 0.00 0.00 61 1018.3
20260503175524 65 187 1.7 2.6 0.00 0.00 0.00 60 1018.3
20260503175043 65 190 0.9 3.5 0.00 0.00 0.00 60 1018.3
20260503174523 65 182 0.9 2.6 0.00 0.00 0.00 60 1018.2
20260503174024 65 184 0.9 1.7 0.00 0.00 0.00 60 1018.2
20260503173519 65 145 0.9 3.5 0.00 0.00 0.00 60 1018.2
20260503173022 65 184 0.9 2.6 0.00 0.00 0.00 60 1018.1
20260503172527 65 190 0.0 1.7 0.00 0.00 0.00 61 1018.1
20260503172024 66 180 0.9 1.7 0.00 0.00 0.00 61 1018.0
20260503171515 66 185 0.9 3.5 0.00 0.00 0.00 61 1017.9
20260503171017 66 194 1.7 4.3 0.00 0.00 0.00 61 1018.0
20260503170523 66 185 0.9 3.5 0.00 0.00 0.00 60 1018.1
20260503150522 68 191 2.6 5.2 0.00 0.00 0.00 56 1018.2
20260503131025 70 222 3.5 6.1 0.00 0.00 0.00 54 1018.7
20260503130518 70 184 2.6 6.1 0.00 0.00 0.00 54 1018.8
20260503110537 72 193 2.6 6.1 0.00 0.00 0.00 50 1019.1
20260503081524 71 171 0.9 3.5 0.00 0.00 0.00 50 1019.5
20260503081030 71 178 0.9 3.5 0.00 0.00 0.00 50 1019.6
20260503080521 71 173 1.7 3.5 0.00 0.00 0.00 51 1019.7
20260503072520 69 193 0.9 2.6 0.00 0.00 0.00 51 1019.7
20260503072024 70 162 1.7 4.3 0.00 0.00 0.00 51 1019.7
20260503071519 70 195 0.9 7.8 0.00 0.00 0.00 51 1019.7
20260503071043 69 200 0.9 3.5 0.00 0.00 0.00 52 1019.8
20260503070541 69 177 0.9 3.5 0.00 0.00 0.00 52 1019.7
20260503055037 64 165 0.9 3.5 0.00 0.00 0.00 60 1019.9
20260503054518 63 15 0.9 1.7 0.00 0.00 0.00 60 1019.9
20260503054023 63 158 0.9 5.2 0.00 0.00 0.00 60 1019.8
20260503053527 63 172 0.9 4.3 0.00 0.00 0.00 60 1019.8
20260503053024 63 162 0.9 2.6 0.00 0.00 0.00 60 1019.8
20260503052526 63 355 1.7 5.2 0.00 0.00 0.00 60 1019.8
20260503052025 63 353 0.9 4.3 0.00 0.00 0.00 61 1019.8